sat.trackr.live / text

‹ back to catalog

LEMUR-2-ANDIS

NORAD 42838 · 2017-042P

PAYLOAD ACTIVE UNKNOWN

§ Identity

Operator
Country
US
Launch date
2017-07-14
Launch site
TYMSC
Launch vehicle
Mass (kg)
RCS (m²)

Purposes: earth_obs

External: N2YO · Heavens-Above · Gunter

§ Orbital elements

Epoch: 2026-09-19T17:37:59.694816Z

Period
93.60 min
Inclination
97.3697°
Eccentricity
0.0008242
Mean motion
15.38434442 rev/d
Perigee alt
445.1 km
Apogee alt
456.4 km
Semi-major
6,828.9 km
B*
4.5693e-4
RAAN
83.7090°
Arg perigee
30.9988°
Mean anomaly
329.1742°
Rev number
50,297

§ Raw data

LEMUR-2-ANDIS1 42838U 17042P   26262.73471869  .00017277  00000+0  45693-3 0  99952 42838  97.3697  83.7090 0008242  30.9988 329.1742 15.38434442502977

JSON: /api/v1/satellites/42838 · /tle

For live sub-satellite position, see the globe view (requires WebGL).

§ Visibility from observer

Set your observer location to see the next 7 days of passes ≥ 10°. The values pass through the URL so the page stays shareable.

No JS? Fill the form by hand. The geolocation button needs JavaScript.